• In Czech Republic
  • List of Countries
  • For 7 days
  • Water Temperature
  • Satellite Maps
  • Weather Map
  • Weather Widgets
  • user-avatar
    Login

    Hourly Weather Klagenfurt

    Today, 17 October, Tuesday

    Time Temperature Precipitation Wind Pressure Humidity
    00:00 +11°C° 0 mm 1 mps 697 mmHg 79%
    01:00 +11°C° 0 mm 1 mps 697 mmHg 80%
    02:00 +10°C° 0 mm 1 mps 696 mmHg 79%
    03:00 +10°C° 0 mm 1 mps 696 mmHg 79%
    04:00 +10°C° 0 mm 1 mps 696 mmHg 79%
    05:00 +10°C° 0 mm 1 mps 696 mmHg 78%
    06:00 +10°C° 0 mm 1 mps 696 mmHg 76%
    07:00 +9°C° 0 mm 1 mps 696 mmHg 73%
    08:00 +12°C° 0 mm 1 mps 697 mmHg 64%
    09:00 +15°C° 0 mm 0 mps 697 mmHg 55%
    10:00 +18°C° 0 mm 0 mps 698 mmHg 46%
    11:00 +19°C° 0 mm 0 mps 697 mmHg 44%
    12:00 +22°C° 0 mm 1 mps 697 mmHg 41%
    13:00 +23°C° 0 mm 1 mps 697 mmHg 38%
    14:00 +22°C° 0 mm 1 mps 696 mmHg 45%
    15:00 +20°C° 0 mm 1 mps 696 mmHg 51%
    16:00 +19°C° 0 mm 1 mps 695 mmHg 58%
    17:00 +16°C° 0 mm 1 mps 695 mmHg 64%
    18:00 +14°C° 0 mm 1 mps 694 mmHg 70%
    19:00 +12°C° 0 mm 1 mps 694 mmHg 77%
    20:00 +12°C° 0 mm 1 mps 694 mmHg 78%
    21:00 +11°C° 0 mm 1 mps 694 mmHg 79%
    22:00 +11°C° 0 mm 1 mps 693 mmHg 80%
    23:00 +11°C° 0 mm 1 mps 693 mmHg 80%

    Tomorrow, 18 October, Wednesday

    Time Temperature Precipitation Wind Pressure Humidity
    00:00 +11°C° 0 mm 1 mps 693 mmHg 79%
    01:00 +11°C° 0 mm 1 mps 693 mmHg 78%
    02:00 +10°C° 0 mm 1 mps 692 mmHg 78%
    03:00 +10°C° 0 mm 1 mps 692 mmHg 78%
    04:00 +9°C° 0 mm 1 mps 691 mmHg 77%
    05:00 +9°C° 0 mm 1 mps 691 mmHg 77%
    06:00 +9°C° 0 mm 1 mps 691 mmHg 77%
    07:00 +9°C° 0 mm 1 mps 691 mmHg 77%
    08:00 +11°C° 0 mm 1 mps 691 mmHg 69%
    09:00 +14°C° 0 mm 1 mps 692 mmHg 60%
    10:00 +16°C° 0 mm 1 mps 692 mmHg 52%
    11:00 +18°C° 0 mm 1 mps 692 mmHg 50%
    12:00 +18°C° 0 mm 2 mps 692 mmHg 48%
    13:00 +19°C° 0 mm 2 mps 692 mmHg 46%
    14:00 +18°C° 0 mm 2 mps 691 mmHg 52%
    15:00 +17°C° 0 mm 2 mps 691 mmHg 57%
    16:00 +16°C° 0 mm 2 mps 690 mmHg 62%
    17:00 +14°C° 0 mm 1 mps 690 mmHg 70%
    18:00 +12°C° 0 mm 1 mps 690 mmHg 79%
    19:00 +10°C° 0 mm 1 mps 690 mmHg 88%
    20:00 +10°C° 0 mm 1 mps 690 mmHg 89%
    21:00 +9°C° 0 mm 1 mps 690 mmHg 90%
    22:00 +9°C° 0 mm 1 mps 690 mmHg 91%
    23:00 +8°C° 0 mm 1 mps 690 mmHg 91%

    Day after tomorrow, 19 October, Thursday

    Time Temperature Precipitation Wind Pressure Humidity
    00:00 +8°C° 0 mm 1 mps 690 mmHg 92%
    01:00 +8°C° 0 mm 1 mps 690 mmHg 92%
    02:00 +8°C° 0 mm 1 mps 690 mmHg 92%
    03:00 +8°C° 0 mm 1 mps 689 mmHg 92%
    04:00 +8°C° 0 mm 1 mps 689 mmHg 92%
    05:00 +8°C° 0 mm 1 mps 689 mmHg 92%
    06:00 +8°C° 0 mm 1 mps 689 mmHg 92%
    07:00 +8°C° 0 mm 1 mps 689 mmHg 91%
    08:00 +10°C° 0 mm 1 mps 690 mmHg 81%
    09:00 +13°C° 0 mm 1 mps 691 mmHg 72%
    10:00 +16°C° 0 mm 1 mps 691 mmHg 62%
    11:00 +18°C° 0 mm 1 mps 691 mmHg 58%
    12:00 +18°C° 0 mm 1 mps 691 mmHg 54%
    13:00 +18°C° 0 mm 2 mps 691 mmHg 50%
    14:00 +18°C° 0 mm 1 mps 691 mmHg 55%
    15:00 +18°C° 0 mm 1 mps 690 mmHg 60%
    16:00 +16°C° 0 mm 1 mps 690 mmHg 64%
    17:00 +14°C° 0 mm 1 mps 690 mmHg 72%
    18:00 +12°C° 0 mm 1 mps 690 mmHg 80%
    19:00 +10°C° 0 mm 1 mps 690 mmHg 88%
    20:00 +10°C° 0 mm 1 mps 690 mmHg 89%
    21:00 +9°C° 0 mm 1 mps 690 mmHg 90%
    22:00 +9°C° 0 mm 1 mps 690 mmHg 91%
    23:00 +8°C° 0 mm 1 mps 690 mmHg 91%

    20 October, Friday

    Time Temperature Precipitation Wind Pressure Humidity
    00:00 +8°C° 0 mm 1 mps 690 mmHg 92%
    01:00 +8°C° 0 mm 1 mps 690 mmHg 92%
    02:00 +8°C° 0 mm 1 mps 690 mmHg 92%
    03:00 +8°C° 0 mm 1 mps 690 mmHg 92%
    04:00 +7°C° 0 mm 1 mps 690 mmHg 92%
    05:00 +7°C° 0 mm 1 mps 690 mmHg 92%
    06:00 +7°C° 0 mm 1 mps 690 mmHg 91%
    07:00 +7°C° 0 mm 1 mps 691 mmHg 91%
    08:00 +10°C° 0 mm 1 mps 691 mmHg 81%
    09:00 +13°C° 0 mm 1 mps 692 mmHg 72%
    10:00 +16°C° 0 mm 1 mps 693 mmHg 63%
    11:00 +18°C° 0 mm 1 mps 693 mmHg 59%
    12:00 +19°C° 0 mm 1 mps 693 mmHg 55%
    13:00 +20°C° 0 mm 1 mps 693 mmHg 52%
    14:00 +19°C° 0 mm 1 mps 693 mmHg 57%
    15:00 +18°C° 0 mm 1 mps 692 mmHg 62%
    16:00 +16°C° 0 mm 1 mps 692 mmHg 68%
    17:00 +14°C° 0 mm 1 mps 692 mmHg 75%
    18:00 +12°C° 0 mm 1 mps 692 mmHg 82%
    19:00 +10°C° 0 mm 1 mps 692 mmHg 89%
    20:00 +10°C° 0 mm 1 mps 692 mmHg 90%
    21:00 +10°C° 0 mm 1 mps 692 mmHg 91%
    22:00 +9°C° 0 mm 1 mps 693 mmHg 92%
    23:00 +9°C° 0 mm 1 mps 692 mmHg 93%

    21 October, Saturday

    Time Temperature Precipitation Wind Pressure Humidity
    00:00 +9°C° 0 mm 1 mps 692 mmHg 93%
    01:00 +8°C° 0 mm 1 mps 692 mmHg 93%
    02:00 +8°C° 0 mm 1 mps 692 mmHg 93%
    03:00 +8°C° 0 mm 1 mps 692 mmHg 93%
    04:00 +8°C° 0 mm 1 mps 692 mmHg 93%
    05:00 +8°C° 0 mm 1 mps 692 mmHg 92%
    06:00 +8°C° 0 mm 1 mps 692 mmHg 91%
    07:00 +8°C° 0 mm 1 mps 692 mmHg 90%
    08:00 +11°C° 0 mm 1 mps 692 mmHg 81%
    09:00 +13°C° 0 mm 1 mps 692 mmHg 72%
    10:00 +16°C° 0 mm 1 mps 693 mmHg 63%
    11:00 +18°C° 0 mm 1 mps 693 mmHg 60%
    12:00 +19°C° 0 mm 1 mps 693 mmHg 56%
    13:00 +20°C° 0 mm 1 mps 692 mmHg 53%
    14:00 +19°C° 0 mm 1 mps 692 mmHg 58%
    15:00 +18°C° 0 mm 1 mps 692 mmHg 63%
    16:00 +16°C° 0 mm 1 mps 691 mmHg 69%
    17:00 +14°C° 0 mm 1 mps 691 mmHg 76%
    18:00 +12°C° 0 mm 1 mps 691 mmHg 83%
    19:00 +11°C° 0 mm 1 mps 691 mmHg 90%
    20:00 +10°C° 0 mm 1 mps 691 mmHg 91%
    21:00 +10°C° 0 mm 1 mps 691 mmHg 92%
    22:00 +10°C° 0 mm 1 mps 691 mmHg 92%
    23:00 +9°C° 0 mm 1 mps 691 mmHg 92%

    22 October, Sunday

    Time Temperature Precipitation Wind Pressure Humidity
    00:00 +9°C° 0 mm 1 mps 691 mmHg 92%
    01:00 +9°C° 0 mm 1 mps 691 mmHg 92%
    02:00 +9°C° 0 mm 1 mps 690 mmHg 92%
    03:00 +9°C° 0 mm 1 mps 690 mmHg 92%
    04:00 +9°C° 0 mm 1 mps 690 mmHg 92%
    05:00 +9°C° 0 mm 1 mps 690 mmHg 91%
    06:00 +9°C° 0 mm 1 mps 690 mmHg 91%
    07:00 +9°C° 0 mm 1 mps 690 mmHg 91%
    08:00 +10°C° 0 mm 0 mps 690 mmHg 84%
    09:00 +12°C° 0 mm 0 mps 690 mmHg 77%
    10:00 +14°C° 0 mm 0 mps 691 mmHg 70%
    11:00 +14°C° 0.5 mm 1 mps 690 mmHg 73%
    12:00 +14°C° 0.5 mm 1 mps 690 mmHg 77%
    13:00 +14°C° 0.5 mm 1 mps 689 mmHg 81%
    14:00 +13°C° 2.3 mm 1 mps 689 mmHg 85%
    15:00 +12°C° 2.3 mm 1 mps 689 mmHg 90%
    16:00 +11°C° 2.3 mm 1 mps 689 mmHg 95%
    17:00 +10°C° 3.5 mm 1 mps 689 mmHg 94%
    18:00 +8°C° 3.5 mm 2 mps 689 mmHg 93%
    19:00 +8°C° 3.5 mm 2 mps 689 mmHg 93%
    20:00 +7°C° 1.6 mm 2 mps 690 mmHg 93%
    21:00 +7°C° 1.6 mm 2 mps 690 mmHg 92%
    22:00 +6°C° 1.6 mm 2 mps 691 mmHg 92%
    23:00 +6°C° 0.6 mm 2 mps 691 mmHg 92%
    Show more